Regional Weather Roundup
Issued by NWS

Home | Current Version | Previous Version | Graphics & Text | Print | Product List | Glossary On
Versions: 1 2 3 4 5 6 7 8 9 10 11 12 13 14 15 16 17 18 19 20 21 22 23 24 25 26 27 28 29 30 31 32 33 34 35 36 37 38 39 40 41 42 43 44 45 46 47 48 49 50
000
ASUS43 KFSD 242002
RWRSD

WEATHER ROUNDUP FOR SOUTH DAKOTA
NATIONAL WEATHER SERVICE SIOUX FALLS SD
200 PM CST SAT FEB 24 2018

NOTE: "FAIR" INDICATES FEW OR NO CLOUDS BELOW 12,000 FEET WITH NO
SIGNIFICANT WEATHER AND/OR OBSTRUCTIONS TO VISIBILITY.


SDZ001>005-009-010-012>017-242100-
NORTHWEST AND NORTH CENTRAL SOUTH DAKOTA

CITY           SKY/WX    TMP DP  RH WIND       PRES   REMARKS
BUFFALO          N/A     22  11  62 W17       29.62S WCI   8
FAITH            N/A     19  12  74 W3        29.69F
MOBRIDGE       SNOW      21  16  81 CALM      29.71F VSB 1/2
$$

SDZ012>016-024>037-041>051-057-063-072>074-242100-
SOUTHWEST AND SOUTH CENTRAL SOUTH DAKOTA

CITY           SKY/WX    TMP DP  RH WIND       PRES   REMARKS
RAPID CTY ARPT SUNNY     27  16  63 N23       29.66F WCI  12
PIERRE         LGT SNOW  16  12  84 NE7       29.72F FOG     WCI   6
CUSTER         MOSUNNY   25   3  38 NW12G26   29.60R WCI  14
ELLSWORTH AFB  SUNNY     28  15  58 N20       29.66F WCI  15
PHILIP         MOSUNNY   18  13  80 NW14      29.72F WCI   4
PINE RIDGE     SUNNY     27  14  58 W12       29.72S WCI  17
SPEARFISH        N/A     27  12  54 W17G26    29.67F WCI  14
WINNER         FAIR      23  16  74 CALM      29.66F
$$

SDZ004>011-016>023-039-040-242100-
NORTHEAST SOUTH DAKOTA

CITY           SKY/WX    TMP DP  RH WIND       PRES   REMARKS
ABERDEEN       SNOW      18  14  84 N8        29.78F VSB 1/4 WCI   8
WATERTOWN      SNOW      20  18  92 E8        29.68F VSB 1/2 WCI  10
BROOKINGS      LGT SNOW  23  19  85 SE16      29.70F VSB 3/4 WCI  10
SISSETON         N/A     14  11  87 E8        29.81F WCI   3
$$

SDZ017-020-022-023-036>040-048>070-242100-
SOUTHEAST SOUTH DAKOTA

CITY           SKY/WX    TMP DP  RH WIND       PRES   REMARKS
SIOUX FALLS    LGT SNOW  20  17  88 SE12      29.72F FOG     WCI   8
HURON          CLOUDY    19  16  88 CALM      29.74F
CHAMBERLAIN    CLOUDY    19  14  82 E3        29.70F FOG
MITCHELL       CLOUDY    17  13  84 NW8       29.74F WCI   7
YANKTON        CLOUDY    25  18  74 SE8       29.74F WCI  16
$$

ABBREVIATIONS USED IN REMARKS
   TC - TEMPERATURE IN CELSIUS
  WCI - WIND CHILL INDEX
   HX - HEAT INDEX
  VSB - VISIBILITY





USA.gov is the U.S. government's official web portal to all federal, state and local government web resources and services.